Home > Time Zones > World Clock > Weather > U.S.A. > Erie > Past weeks

Flag Weather past 2 weeks in Erie, Pennsylvania, U.S.A.

Now
35 °F

Overcast.


Feels Like: 29 °F
Forecast: 32 / 36 °F
Wind: 8 mph from East

Location: Erie International Airport

Current Time: Nov 26, 2014 at 7:48:38 PM

Latest Report: Nov 26, 2014 at 6:51 PM


Visibility: 10 mi

Pressure: 30.05 "Hg

Humidity: 75%

Dew point: 28 °F

Location of ErieLocation

Historic Weather in Erie — Graph

°F

Erie temperature yesterday

Maximum temperature yesterday: 43 °F (at 12:51 AM)
Minimum temperature yesterday: 35 °F (at 8:51 PM)
Average temperature yesterday: 38 °F

Past Weeks' High & Low Weather Summary

 TemperatureHumidityPressure
High68 °F (Nov 11, 5:51 PM)92% (Nov 13, 10:00 AM)30.51 "Hg (Nov 13, 10:00 AM)
Low12 °F (Nov 19, 6:51 AM)33% (Nov 11, 7:51 PM)29.23 "Hg (Nov 24, 12:51 PM)
Average34 °F66%30.02 "Hg
* Reported Nov 11 5:51 PM — Nov 26 5:51 PM, Erie, Weather by CustomWeather, © 2014

Note: Actual official high and low records may vary slightly from our data, if they occured in-between our weather recording intervals... More about our weather records

Advertising

Erie weather history for previous 24 hours

 ConditionsComfort  
Time TempWeatherWind HumidityBarometerVisibility
5:51 PM
Nov 26
35 °FOvercast.5 mph75%30.05 "Hg10 mi
4:51 PM35 °FOvercast.7 mph72%30.06 "Hg10 mi
3:51 PM36 °FOvercast.9 mph73%30.06 "Hg10 mi
2:51 PM36 °FOvercast.8 mph73%30.08 "Hg10 mi
1:51 PM36 °FPartly sunny.8 mph73%30.09 "Hg10 mi
12:51 PM36 °FBroken clouds.7 mph70%30.11 "Hg10 mi
11:51 AM36 °FOvercast.7 mph64%30.13 "Hg10 mi
10:51 AM36 °FOvercast.10 mph64%30.15 "Hg10 mi
9:51 AM35 °FOvercast.9 mph70%30.12 "Hg10 mi
8:51 AM35 °FOvercast.6 mph70%30.15 "Hg10 mi
7:51 AM35 °FOvercast.No wind67%30.17 "Hg10 mi
6:51 AM34 °FOvercast.No wind70%30.17 "Hg10 mi
5:51 AM34 °FOvercast.No wind70%30.17 "Hg10 mi
4:51 AM34 °FOvercast.No wind70%30.19 "Hg10 mi
3:51 AM34 °FOvercast.5 mph70%30.21 "Hg10 mi
2:51 AM34 °FOvercast.5 mph70%30.20 "Hg10 mi
1:51 AM35 °FOvercast.3 mph64%30.20 "Hg10 mi
12:51 AM35 °FOvercast.5 mph64%30.20 "Hg10 mi
11:51 PM
Nov 25
35 °FOvercast.6 mph64%30.22 "Hg10 mi
10:51 PM35 °FOvercast.6 mph64%30.23 "Hg10 mi
9:51 PM35 °FOvercast.6 mph64%30.22 "Hg10 mi
8:51 PM35 °FOvercast.9 mph64%30.21 "Hg10 mi
7:51 PM36 °FOvercast.9 mph67%30.18 "Hg10 mi
Weather by CustomWeather, © 2014

See weather overviewHow to use our weather pages